Luxor, Egypt

12:11 PM EET on February 25, 2017 (GMT +0200)
Luxor International

Weather History for HELX - November, 2013

Change the Weather History Date:

Wednesday, November 27, 2013

  Actual Average Record
Temperature  
Mean Temperature 74 °F -  
Max Temperature 89 °F 73 °F 91 °F (2005)
Min Temperature 58 °F 47 °F 48 °F (2001)
Cooling Degree Days 8    
Growing Degree Days 24 (Base 50)    
Moisture  
Dew Point 51 °F    
Average Humidity 40    
Maximum Humidity 53    
Minimum Humidity 25    
Precipitation  
Precipitation 0.00 in 0.00 in - ()
Sea Level Pressure  
Sea Level Pressure 29.96 in    
Wind  
Wind Speed 1 mph ()    
Max Wind Speed 6 mph    
Max Gust Speed -    
Visibility 6.0 miles    
Events      
Averages and records for this station are not official NWS values.
T = Trace of Precipitation, MM = Missing Value Source: Averaged Metar Reports

Daily Weather History Graph

Daily Weather History Graph

Search for Another Location

Airport or City:

Trip Planner

Search our weather history database for the weather conditions in past years. The results will help you decide how hot, cold, wet, or windy it might be!

Date:

Astronomy

Nov. 27, 2013 Rise Set
Actual Time 6:15 AM EET 4:57 PM EET
Civil Twilight 5:50 AM EET 5:22 PM EET
Nautical Twilight 5:22 AM EET 5:50 PM EET
Astronomical Twilight 4:54 AM EET 6:18 PM EET
Moon 12:31 AM EET (11/27) 12:53 PM EET (11/27)
Length of Visible Light 11h 31m
Length of Day
10h 42m
Waning Crescent, 34% of the Moon is Illuminated
Nov 27
Waning Crescent
Dec 3
New
Dec 9
First Quarter
Dec 17
Full
Dec 25
Last Quarter

Hourly Weather History & Observations

Time (EET) Temp. Heat Index Dew Point Humidity Pressure Visibility Wind Dir Wind Speed Gust Speed Precip Events Conditions
12:00 AM 69.8 °F - 48.2 °F 46% 29.92 in - ESE 2.3 mph - N/A   Clear
1:00 AM 69.8 °F - 46.4 °F 43% 29.92 in - East 2.3 mph - N/A   Clear
2:00 AM 67 °F - 45 °F 34% 29.94 in 6 mi Calm Calm - -  
2:00 AM 68.0 °F - 44.6 °F 43% 29.92 in - Calm Calm - N/A   Clear
3:00 AM 64.4 °F - 44.6 °F 49% 29.92 in - Calm Calm - N/A   Clear
4:00 AM 62.6 °F - 44.6 °F 52% 29.92 in - Calm Calm - N/A   Clear
5:00 AM 62 °F - 43 °F 38% 29.95 in 6 mi Calm Calm - -  
5:00 AM 62.6 °F - 42.8 °F 48% 29.95 in - Calm Calm - N/A   Clear
6:00 AM 60.8 °F - 42.8 °F 52% 29.95 in - Calm Calm - N/A   Clear
7:00 AM 62.6 °F - 44.6 °F 52% 29.98 in - Calm Calm - N/A   Clear
8:00 AM 67 °F - 46 °F 35% 30.01 in 6 mi NNE 2.3 mph - -  
8:00 AM 68.0 °F - 46.4 °F 46% 30.01 in - NNE 2.3 mph - N/A   Clear
9:00 AM 73.4 °F - 44.6 °F 36% 30.01 in - Calm Calm - N/A   Clear
10:00 AM 80.6 °F - 48.2 °F 32% 30.01 in - Calm Calm - N/A   Clear
11:00 AM 82 °F - 54 °F 27% 29.99 in 6 mi North 2.3 mph - -  
11:00 AM 82.4 °F 81.4 °F 53.6 °F 37% 29.98 in - North 2.3 mph - N/A   Clear
12:00 PM 86.0 °F 85.4 °F 59.0 °F 40% 29.95 in - Calm Calm - N/A   Clear
1:00 PM 87.8 °F 86.5 °F 57.2 °F 35% 29.92 in - NNW 2.3 mph - N/A   Clear
2:00 PM 89 °F - 58 °F 25% 29.91 in 6 mi West 5.8 mph - -   Clear
2:00 PM 89.6 °F 88.1 °F 57.2 °F 33% 29.92 in - West 5.8 mph - N/A   Clear
3:00 PM 89.6 °F 88.1 °F 57.2 °F 33% 29.92 in - West 4.6 mph - N/A   Clear
3:30 PM 89.6 °F 88.1 °F 57.2 °F 33% 29.92 in - West 4.6 mph - N/A   Clear
4:00 PM 87.8 °F 87.6 °F 60.8 °F 40% 29.92 in - SW 2.3 mph - N/A   Clear
5:00 PM 85 °F - 56 °F 27% 29.93 in 6 mi South 2.3 mph - -   Clear
5:00 PM 86.0 °F 84.5 °F 55.4 °F 35% 29.92 in - South 2.3 mph - N/A   Clear
6:00 PM 80.6 °F 80.5 °F 55.4 °F 42% 29.95 in - Calm Calm - N/A   Clear
7:00 PM 78.8 °F - 51.8 °F 39% 29.95 in - Calm Calm - N/A   Clear
8:00 PM 76 °F - 52 °F 33% 29.97 in 6 mi Calm Calm - -  
8:00 PM 77.0 °F - 51.8 °F 41% 29.98 in - Calm Calm - N/A   Clear
9:00 PM 77.0 °F - 50.0 °F 39% 29.98 in - Calm Calm - N/A   Clear
10:00 PM 73.4 °F - 51.8 °F 47% 30.01 in - Calm Calm - N/A   Clear
11:00 PM 70 °F - 52 °F 42% 30.00 in 6 mi Calm Calm - -  
11:00 PM 69.8 °F - 51.8 °F 53% 30.01 in - Calm Calm - N/A   Clear